N0RRC Weather Reports


time (UTC)temp
C
wind
direction
speed
KPH
gust
KPH
rain 1hr
cm
rain 24hr
cm
rain mn
cm
humidity
%
barometer
mb
20260505172657 11 263 12.9 22.5 0.00 0.00 0.00 50 1006.9
20260505171717 11 264 12.9 32.2 0.00 0.00 0.00 50 1007.0
20260505170657 11 272 12.9 19.3 0.00 0.00 0.00 51 1007.1
20260505165657 10 299 12.9 22.5 0.00 0.00 0.00 51 1007.0
20260505164657 10 301 16.1 25.7 0.00 0.00 0.00 52 1007.1
20260505163657 10 284 14.5 25.7 0.00 0.00 0.00 52 1007.1
20260505162657 10 279 16.1 24.1 0.00 0.00 0.00 48 1007.2
20260505161657 10 263 12.9 30.6 0.00 0.00 0.00 50 1007.1
20260505160657 10 286 12.9 19.3 0.00 0.00 0.00 50 1007.1
20260505152657 10 262 11.3 24.1 0.00 0.00 0.00 55 1006.9
20260505151657 10 304 9.7 17.7 0.00 0.00 0.00 56 1007.0
20260505150657 9 269 12.9 24.1 0.00 0.00 0.00 57 1007.1
20260505124716 7 233 4.8 11.3 0.00 0.00 0.00 63 1007.7
20260505123738 7 244 6.4 11.3 0.00 0.00 0.00 62 1007.6
20260505122656 6 239 3.2 6.4 0.00 0.00 0.00 67 1007.6
20260505121656 6 226 4.8 9.7 0.00 0.00 0.00 66 1007.2
20260505120657 6 248 4.8 8.0 0.00 0.00 0.00 67 1006.9
20260505115656 6 0.0 0.0 0.00 0.00 0.00 65 1006.2
20260505114656 6 0.0 0.0 0.00 0.00 0.00 63 1006.3
20260505113656 5 0.0 0.0 0.00 0.00 0.00 67 1005.9
20260505112656 4 0.0 0.0 0.00 0.00 0.00 68 1006.1
20260505111656 4 0.0 0.0 0.00 0.00 0.00 68 1006.0
20260505110657 4 284 0.0 1.6 0.00 0.00 0.00 66 1006.0
20260505101657 5 284 0.0 3.2 0.00 0.00 0.00 62 1005.6
20260505100657 6 284 1.6 3.2 0.00 0.00 0.00 60 1005.4
20260505095656 6 285 1.6 4.8 0.00 0.00 0.00 60 1005.4
20260505094716 6 287 3.2 6.4 0.00 0.00 0.00 61 1005.6
20260505093656 6 304 4.8 9.7 0.00 0.00 0.00 60 1005.8
20260505092657 6 283 4.8 11.3 0.00 0.00 0.00 60 1005.7
20260505091657 6 289 6.4 12.9 0.00 0.00 0.00 59 1005.4
20260505090656 6 299 8.0 12.9 0.00 0.00 0.00 60 1005.2
20260505085656 6 290 4.8 6.4 0.00 0.00 0.00 60 1005.2
20260505084657 7 286 4.8 9.7 0.00 0.00 0.00 58 1004.8
20260505083656 7 288 8.0 12.9 0.00 0.00 0.00 57 1004.5
20260505082656 7 291 8.0 14.5 0.00 0.00 0.00 56 1004.2
20260505081657 7 314 8.0 14.5 0.00 0.00 0.00 55 1003.9
20260505080656 7 313 8.0 17.7 0.00 0.00 0.00 54 1003.8
20260505075757 7 307 8.0 19.3 0.00 0.00 0.00 55 1003.5
20260505074717 8 319 9.7 20.9 0.00 0.00 0.00 55 1003.5
20260505073656 8 315 14.5 22.5 0.00 0.00 0.00 56 1003.6
20260505072656 8 311 12.9 25.7 0.00 0.00 0.00 57 1003.4
20260505071656 8 322 12.9 20.9 0.00 0.00 0.00 59 1003.6
20260505070657 8 332 9.7 20.9 0.00 0.00 0.00 59 1003.2
20260505065656 8 324 9.7 19.3 0.00 0.00 0.00 58 1003.0
20260505064656 9 329 11.3 17.7 0.00 0.00 0.00 57 1002.9
20260505063656 10 328 14.5 22.5 0.00 0.00 0.00 57 1002.9
20260505062656 10 321 14.5 22.5 0.00 0.00 0.00 58 1003.0
20260505061655 10 301 12.9 17.7 0.00 0.00 0.00 57 1002.9
20260505060656 10 324 9.7 19.3 0.00 0.00 0.00 57 1002.6
20260505055656 10 315 9.7 16.1 0.00 0.00 0.00 57 1002.6
20260505054657 10 316 8.0 19.3 0.00 0.00 0.00 57 1002.5
20260505053657 11 309 8.0 17.7 0.00 0.00 0.00 56 1002.5
20260505052655 11 305 9.7 14.5 0.00 0.00 0.00 56 1002.3
20260505051656 11 310 9.7 20.9 0.00 0.00 0.00 55 1002.0
20260505050655 11 309 9.7 20.9 0.00 0.00 0.00 54 1001.7
20260505041656 13 295 9.7 19.3 0.00 0.00 0.00 50 1000.6
20260505040656 13 287 9.7 16.1 0.00 0.00 0.00 49 1000.7
20260505035657 13 274 6.4 14.5 0.00 0.00 0.00 47 1000.8
20260505034656 14 281 6.4 14.5 0.00 0.00 0.00 46 1000.6
20260505033656 14 285 11.3 16.1 0.00 0.00 0.00 44 1000.4
20260505032657 15 281 12.9 22.5 0.00 0.00 0.00 44 1000.2
20260505031656 15 286 14.5 24.1 0.00 0.00 0.00 46 1000.0
20260505030656 15 284 6.4 14.5 0.00 0.00 0.00 52 999.8
20260505025716 15 271 6.4 12.9 0.00 0.00 0.00 51 999.6
20260505024656 15 282 3.2 6.4 0.00 0.00 0.00 52 998.9
20260505023656 15 284 6.4 14.5 0.00 0.00 0.00 50 999.1
20260505022656 15 277 6.4 12.9 0.00 0.00 0.00 50 999.0
20260505021656 16 287 6.4 12.9 0.00 0.00 0.00 49 998.9
20260505020656 16 283 4.8 9.7 0.00 0.00 0.00 49 998.7
20260505015717 16 274 8.0 17.7 0.00 0.00 0.00 47 998.5
20260505014656 17 292 8.0 25.7 0.00 0.00 0.00 46 998.1
20260505013656 17 296 12.9 22.5 0.00 0.00 0.00 47 997.7
20260505012657 17 297 14.5 24.1 0.00 0.00 0.00 46 997.2
20260505011657 17 295 17.7 22.5 0.00 0.00 0.00 46 997.0
20260505010656 18 299 11.3 20.9 0.00 0.00 0.00 46 996.7
20260505005656 18 301 9.7 20.9 0.00 0.00 0.00 46 996.4
20260505004656 18 303 8.0 17.7 0.00 0.00 0.00 45 996.1
20260505003656 19 304 12.9 25.7 0.00 0.00 0.00 44 996.0
20260505002656 20 299 11.3 19.3 0.00 0.00 0.00 44 996.0
20260505001657 21 299 9.7 16.1 0.00 0.00 0.00 46 996.0
20260505000657 21 292 11.3 19.3 0.00 0.00 0.00 45 995.8
20260504235655 21 298 16.1 30.6 0.00 0.00 0.00 46 995.6
20260504234656 22 293 14.5 27.4 0.00 0.00 0.00 45 995.5
20260504233657 22 290 14.5 22.5 0.00 0.00 0.00 45 995.3
20260504232655 23 299 17.7 27.4 0.00 0.00 0.00 43 995.6
20260504231656 23 268 8.0 14.5 0.00 0.00 0.00 43 995.2
20260504230717 23 268 8.0 16.1 0.00 0.00 0.00 45 995.1
20260504225655 23 254 6.4 16.1 0.00 0.00 0.00 43 995.0
20260504224657 23 272 4.8 17.7 0.00 0.00 0.00 44 995.1
20260504223736 23 269 6.4 12.9 0.00 0.00 0.00 43 995.1
20260504222655 23 253 8.0 16.1 0.00 0.00 0.00 42 995.1
20260504221656 23 255 8.0 17.7 0.00 0.00 0.00 41 995.2
20260504220655 23 265 11.3 22.5 0.00 0.00 0.00 42 995.3
20260504215655 23 248 12.9 17.7 0.00 0.00 0.00 42 995.3
20260504214657 23 241 14.5 20.9 0.00 0.00 0.00 42 995.3
20260504213655 24 248 16.1 29.0 0.00 0.00 0.00 40 995.3
20260504212655 24 243 14.5 25.7 0.00 0.00 0.00 40 995.3
20260504211657 23 246 19.3 29.0 0.00 0.00 0.00 39 995.4
20260504210655 23 245 17.7 29.0 0.00 0.00 0.00 42 995.5
20260504205655 24 252 17.7 30.6 0.00 0.00 0.00 40 995.8
20260504204656 24 260 14.5 27.4 0.00 0.00 0.00 41 995.9
20260504203655 24 248 17.7 25.7 0.00 0.00 0.00 41 996.0
20260504202656 24 240 16.1 25.7 0.00 0.00 0.00 42 996.1
20260504201656 23 245 16.1 29.0 0.00 0.00 0.00 42 996.2
20260504200655 23 233 14.5 27.4 0.00 0.00 0.00 42 996.3
20260504195655 23 238 17.7 32.2 0.00 0.00 0.00 41 996.3
20260504194655 23 245 17.7 35.4 0.00 0.00 0.00 40 996.4
20260504193655 23 253 16.1 30.6 0.00 0.00 0.00 41 996.5
20260504192655 23 242 22.5 35.4 0.00 0.00 0.00 41 996.6
20260504191655 23 235 20.9 33.8 0.00 0.00 0.00 40 996.7
20260504190715 23 257 17.7 30.6 0.00 0.00 0.00 39 996.7
20260504185656 23 231 16.1 32.2 0.00 0.00 0.00 39 996.6
20260504184655 23 240 16.1 29.0 0.00 0.00 0.00 41 996.9
20260504183657 23 228 16.1 29.0 0.00 0.00 0.00 40 997.0
20260504182657 23 236 17.7 29.0 0.00 0.00 0.00 39 997.0
20260504181717 23 232 19.3 33.8 0.00 0.00 0.00 38 997.0
20260504180657 23 229 14.5 27.4 0.00 0.00 0.00 40 997.0
20260504175659 23 223 12.9 37.0 0.00 0.00 0.00 39 997.2
20260504174657 23 233 16.1 25.7 0.00 0.00 0.00 40 997.2
20260504173719 22 211 14.5 27.4 0.00 0.00 0.00 39 997.1